Content
SEND FEEDBACK

Daily
Averages
Monthly
Summary
United States of America

TELLURIDE, COLORADO


Home > North America > United States > Colorado
Elevation: 9813 feet     Latitude: 37 57N     Longitude: 107 49W

WEATHER
 
SELECT A DAY
Number of Records: 299,712;   Date Range: 1/1/95 - 8/28/14
 
SHARE

PRINT THIS DATA

[ ← Previous Day ]
WEATHER ALMANAC - MAY 25, 2013
[ Next Day → ]
[ °C ]   °F
Weather ElementAverageHighLow
Temperature57.7 °F68 °F (2:35 pm)44.6 °F (3:35 am)
Dewpoint11.8 °F19.4 °F (12:35 am)5 °F (8:35 am)
Humidity17.5 %30 % (12:35 am)10 % (11:15 am)
Barometer30.25 in30.29 in (9:15 am)30.20 in (6:35 pm)
Wind Speed6.4 mph19.6 mph (12:35 pm)
Wind Gust31.1 mph (12:55 pm)
Weather ElementAverage
Visibility10 mi
Wind DirectionESE (114.2 °)

Weather ElementTotal
Precipitation---
Heating Degree Days8.7 (Base 65)
Growing Degree Days6.3 (Base 50)
Averaged from 71 records on May 25, 2013
WEATHER CONDITIONS BREAKOUT
WIND DIRECTION BREAKOUT
WEATHER BY HOUR - MAY 25, 2013
[ °C ]   °F
Local TimeTemperatureDewpointHumidityBarometerVisibilityWind DirectionWind SpeedGust SpeedPrecipitationEventsConditions
12:35 AM50.0 °F19.4 °F30 %30.26 in10.0 miEast (90°)3.5 mphClear
12:55 AM50.0 °F19.4 °F30 %30.26 in10.0 miCalmClear
1:15 AM48.2 °F17.6 °F30 %30.26 in10.0 miCalmClear
1:35 AM48.2 °F17.6 °F30 %30.26 in10.0 miCalmClear
1:55 AM50.0 °F15.8 °F26 %30.26 in10.0 miESE (120°)5.8 mphClear
2:15 AM48.2 °F17.6 °F30 %30.26 in10.0 miCalmClear
2:35 AM50.0 °F15.8 °F26 %30.26 in10.0 miCalmClear
2:55 AM46.4 °F15.8 °F29 %30.25 in10.0 miCalmClear
3:15 AM46.4 °F15.8 °F29 %30.26 in10.0 miCalmClear
3:35 AM44.6 °F14.0 °F29 %30.26 in10.0 miCalmClear
3:55 AM46.4 °F12.2 °F25 %30.26 in10.0 miCalmClear
4:15 AM46.4 °F12.2 °F25 %30.26 in10.0 miCalmClear
4:35 AM46.4 °F12.2 °F25 %30.26 in10.0 miENE (60°)3.5 mphClear
4:55 AM48.2 °F10.4 °F22 %30.26 in10.0 miNNE (30°)3.5 mphClear
5:15 AM48.2 °F8.6 °F20 %30.26 in10.0 miCalmClear
5:35 AM48.2 °F8.6 °F20 %30.26 in10.0 miCalmClear
5:55 AM48.2 °F10.4 °F22 %30.27 in10.0 miSSE (150°)4.6 mphClear
6:15 AM48.2 °F8.6 °F20 %30.27 in10.0 miCalmClear
6:35 AM46.4 °F10.4 °F23 %30.28 in10.0 miCalmClear
6:55 AM48.2 °F10.4 °F22 %30.28 in10.0 miESE (110°)6.9 mphClear
7:15 AM50.0 °F10.4 °F20 %30.28 in10.0 miCalmClear
7:35 AM51.8 °F14.0 °F22 %30.28 in10.0 miCalmClear
7:55 AM53.6 °F12.2 °F19 %30.28 in10.0 miCalmClear
8:15 AM55.4 °F8.6 °F15 %30.28 in10.0 miEast (80°)3.5 mphClear
8:35 AM57.2 °F5.0 °F12 %30.28 in10.0 miSE (140°)6.9 mph17.3 mphClear
8:55 AM59.0 °F5.0 °F12 %30.28 in10.0 miSSE (150°)12.7 mph19.6 mphClear
9:15 AM59.0 °F5.0 °F12 %30.29 in10.0 miSE (140°)11.5 mph19.6 mphClear
9:35 AM59.0 °F5.0 °F12 %30.28 in10.0 miCalmClear
9:55 AM59.0 °F6.8 °F13 %30.28 in10.0 miSouth (190°)3.5 mphClear
10:15 AM60.8 °F5.0 °F11 %30.28 in10.0 miSSW (200°)10.4 mph18.4 mphClear
10:35 AM60.8 °F6.8 °F12 %30.27 in10.0 miSSW (200°)6.9 mphClear
10:55 AM62.6 °F8.6 °F12 %30.28 in10.0 miSSE (160°)3.5 mphClear
11:15 AM62.6 °F5.0 °F10 %30.27 in10.0 miSouth (190°)9.2 mph26.5 mphClear
11:35 AM62.6 °F6.8 °F11 %30.27 in10.0 miSSW (210°)10.4 mph21.9 mphClear
11:55 AM62.6 °F8.6 °F12 %30.27 in10.0 miSSE (160°)11.5 mph23.0 mphClear
12:15 PM62.6 °F10.4 °F13 %30.27 in10.0 miSSW (210°)5.8 mph21.9 mphClear
12:35 PM64.4 °F8.6 °F11 %30.26 in10.0 miSSW (200°)19.6 mph29.9 mphClear
12:55 PM64.4 °F5.0 °F10 %30.25 in10.0 miSSW (200°)18.4 mph31.1 mphClear
1:15 PM64.4 °F6.8 °F10 %30.26 in10.0 miSSW (200°)17.3 mph24.2 mphClear
1:35 PM64.4 °F8.6 °F11 %30.25 in10.0 miSW (230°)11.5 mph18.4 mphClear
1:55 PM66.2 °F10.4 °F11 %30.25 in10.0 miSW (220°)15.0 mph25.3 mphClear
2:15 PM66.2 °F12.2 °F12 %30.24 in10.0 miSE (130°)16.1 mph28.8 mphClear
2:35 PM68.0 °F12.2 °F12 %30.24 in10.0 miSSE (160°)10.4 mph20.7 mphClear
2:55 PM68.0 °F10.4 °F11 %30.24 in10.0 miSSW (200°)16.1 mph25.3 mphClear
3:15 PM68.0 °F8.6 °F10 %30.23 in10.0 miSSW (200°)17.3 mph27.6 mphClear
3:35 PM66.2 °F10.4 °F11 %30.23 in10.0 miSSW (200°)10.4 mph26.5 mphClear
3:55 PM68.0 °F8.6 °F10 %30.23 in10.0 miSouth (180°)13.8 mph23.0 mphClear
4:15 PM66.2 °F8.6 °F11 %30.23 in10.0 miSouth (170°)12.7 mph23.0 mphClear
4:35 PM66.2 °F10.4 °F11 %30.23 in10.0 miSouth (180°)10.4 mph21.9 mphClear
4:55 PM68.0 °F10.4 °F11 %30.22 in10.0 miSouth (170°)9.2 mph23.0 mphClear
5:15 PM66.2 °F10.4 °F11 %30.21 in10.0 miSouth (170°)15.0 mph20.7 mphClear
5:35 PM66.2 °F12.2 °F12 %30.21 in10.0 miSouth (170°)12.7 mph17.3 mphClear
5:55 PM66.2 °F12.2 °F12 %30.21 in10.0 miSouth (190°)12.7 mph23.0 mphClear
6:15 PM64.4 °F12.2 °F13 %30.21 in10.0 miSSW (200°)8.1 mph19.6 mphClear
6:35 PM64.4 °F12.2 °F13 %30.20 in10.0 miSSW (200°)12.7 mph17.3 mphClear
6:55 PM64.4 °F14.0 °F14 %30.21 in10.0 miSE (140°)5.8 mph18.4 mphClear
7:15 PM64.4 °F12.2 °F13 %30.21 in10.0 miSouth (170°)11.5 mph21.9 mphClear
7:35 PM64.4 °F12.2 °F13 %30.22 in10.0 miSSW (210°)3.5 mphClear
7:55 PM62.6 °F14.0 °F15 %30.22 in10.0 miSSW (200°)5.8 mphClear
8:15 PM62.6 °F14.0 °F15 %30.22 in10.0 miSouth (190°)5.8 mphClear
8:35 PM62.6 °F14.0 °F15 %30.23 in10.0 miSSW (210°)4.6 mphClear
8:55 PM60.8 °F14.0 °F16 %30.23 in10.0 miSSW (200°)3.5 mphClear
9:15 PM60.8 °F14.0 °F16 %30.23 in10.0 miCalmClear
9:35 PM59.0 °F14.0 °F17 %30.24 in10.0 miCalmClear
9:55 PM59.0 °F15.8 °F19 %30.24 in10.0 miSE (130°)5.8 mphClear
10:15 PM57.2 °F17.6 °F21 %30.24 in10.0 miEast (100°)3.5 mphClear
10:35 PM55.4 °F17.6 °F23 %30.25 in10.0 miESE (110°)6.9 mphClear
10:55 PM55.4 °F19.4 °F25 %30.25 in10.0 miSE (140°)8.1 mphClear
11:15 PM53.6 °F19.4 °F26 %30.25 in10.0 miCalmClear
11:35 PM53.6 °F19.4 °F26 %30.25 in10.0 miSSE (150°)3.5 mphClear
11:55 PM51.8 °F19.4 °F28 %30.25 in10.0 miCalmClear
Hourly data recorded from KTEX, located miles away from Telluride, Colorado







STORIES FROM OUR PARTNERS